Вернуться в каталог

COSMOS 397 DEB

АктивенLEO
NORAD 21723·DEBRIS·🇷🇺 Russia

Запущен Feb 25, 1971 с Baikonur Cosmodrome

Loading…

Ближайшие Пролёты (ближайшие 24 часа)

TLE

СвежийSource: Space-Track

Эпоха: Sep 14, 2026, 00:48 UTC

1 21723U 71015DW  26257.03398202  .00018570  00000-0  13154-2 0  9995
2 21723  65.6616 123.9095 0175557   6.7148 353.6263 14.93232620784854

Отслеживайте COSMOS 397 DEB в реальном времени с AllMySat

Download on the App Store